[[{"header":{"parameterUnit":"m.s-1","parameterCategory":1,"la1":30.2991,"la2":30.254,"lo1":-89.0895,"lo2":-89.0444,"dy":0.0017,"dx":0.0017,"nx":28,"ny":28,"refTime":"2026-01-05T09:00:00:Z","depth":0,"parameterNumber":2,"parameterNumberName":"U-component_of_WINDS"},"data":[0,0,0,0,0,0,0,0,0,0,0,0,0,0,0,0,0,0,0,0,0,0,0,0,0,0,0,0,0,0,0,0,0,0,0,0,0,0,0,0,0,0,0,0,0,0,0,0,0,0,0,0,0,0,0,0,0,0,-1.7786,-1.7787,0,-1.7843,-1.7843,-1.7844,-1.7801,-1.7799,-1.7798,-1.7796,-1.7856,-1.786,-1.7863,0,0,0,0,0,0,0,0,0,0,0,0,0,-1.7646,-1.7648,-1.7786,-1.7787,-1.7788,-1.7842,-1.7843,-1.7844,-1.7802,-1.7799,-1.7797,-1.7795,-1.7855,-1.7859,-1.7863,0,0,0,0,0,0,0,0,0,0,0,0,0,-1.7705,-1.7649,-1.7786,-1.7773,-1.7772,-1.7842,-1.7843,-1.7844,-1.7802,-1.7799,-1.7797,-1.7794,-1.7854,-1.7859,-1.7864,-1.795,0,0,-1.7879,-1.7881,0,0,0,0,0,0,0,0,-1.7702,-1.771,-1.7774,-1.7774,-1.7774,-1.7812,-1.7816,-1.788,-1.7803,-1.7791,-1.7796,-1.7793,-1.7844,-1.785,-1.7866,-1.7953,-1.7956,-1.7879,-1.7882,-1.7885,-1.7886,0,0,0,0,0,0,0,-1.7698,-1.7707,-1.7809,-1.7775,-1.7775,-1.7766,-1.7771,-1.7828,-1.7833,-1.7792,-1.7789,-1.7796,-1.7843,-1.7862,-1.7867,-1.7957,-1.7879,-1.7884,-1.7887,-1.7889,-1.8119,-1.8122,0,0,0,0,0,0,-1.7694,-1.7704,-1.7807,-1.781,-1.773,-1.777,-1.7776,-1.7803,-1.7832,-1.7833,-1.7798,-1.7794,-1.7854,-1.7862,-1.7869,-1.7974,-1.7885,-1.7889,-1.7892,-1.8116,-1.812,-1.8123,0,0,0,0,0,0,-1.7691,-1.7704,-1.7805,-1.7757,-1.7769,-1.7776,-1.7806,-1.7805,-1.7823,-1.7837,-1.7837,-1.7816,-1.7853,-1.7862,-1.7931,-1.7975,-1.7892,-1.7896,-1.8112,-1.8117,-1.8121,-1.8183,0,0,0,0,0,0,-1.7688,-1.7703,-1.7735,-1.7758,-1.7771,-1.7864,-1.7808,-1.7808,-1.7832,-1.7826,-1.7853,-1.7855,-1.7851,-1.7923,-1.7936,-1.7981,-1.79,-1.8108,-1.8114,-1.812,-1.8177,-1.8189,-1.8199,0,0,0,0,0,-1.7683,-1.775,-1.7737,-1.7749,-1.7811,-1.7867,-1.7875,-1.7868,-1.7835,-1.7869,-1.7877,-1.7854,-1.7968,-1.7931,-1.7944,-1.7991,-1.8106,-1.8113,-1.812,-1.8172,-1.8187,-1.8199,0,0,0,0,0,0,-1.7733,-1.7753,-1.7738,-1.7815,-1.7839,-1.7859,-1.79,-1.7883,-1.7918,-1.7912,-1.7902,-1.7909,-1.7981,-1.7993,-1.7951,-1.8078,-1.8032,-1.8042,-1.8067,-1.8081,-1.8092,-1.8088,-1.7904,0,0,0,0,0,-1.7754,-1.7796,-1.7811,-1.7877,-1.789,-1.7893,-1.7917,-1.791,-1.7935,-1.7945,-1.7959,-1.7985,-1.8027,-1.8055,-1.8094,-1.8178,-1.8185,-1.8218,-1.8229,-1.8238,-1.8247,-1.8294,-1.831,-1.8146,-1.8146,-1.8146,0,0,-1.7796,-1.7811,-1.7839,-1.7888,-1.7906,-1.7951,-1.7902,-1.7952,-1.7986,-1.7953,-1.8018,-1.803,-1.8058,-1.8136,-1.817,-1.8148,-1.8294,-1.8247,-1.8254,-1.8258,-1.8303,-1.8319,-1.8332,-1.8151,-1.815,-1.8149,0,0,-1.7895,-1.7911,-1.7969,-1.7988,-1.8015,-1.8017,-1.8031,-1.8054,-1.806,-1.8125,-1.8102,-1.8143,-1.8215,-1.8237,-1.8257,-1.8367,-1.8348,-1.838,-1.8439,-1.8486,-1.8499,-1.851,-1.855,-1.8565,-1.8389,-1.8389,-1.8389,0,-1.7944,-1.801,-1.8001,-1.8052,-1.8075,-1.8047,-1.8106,-1.8126,-1.8165,-1.8183,-1.8157,-1.8247,-1.8264,-1.8347,-1.8374,-1.8391,-1.8408,-1.8377,-1.8497,-1.8509,-1.8519,-1.8558,-1.8573,-1.8393,-1.8393,-1.8392,-1.8392,0,-1.807,-1.8116,-1.816,-1.8198,-1.8226,-1.8281,-1.8281,-1.8311,-1.8301,-1.8306,-1.8374,-1.8394,-1.8438,-1.8457,-1.8448,-1.8539,-1.8524,-1.8498,-1.8452,-1.8539,-1.8575,-1.8589,-1.8398,-1.8397,-1.8396,-1.8395,0,0,-1.8203,-1.8236,-1.8252,-1.827,-1.8299,-1.8335,-1.839,-1.8432,-1.8458,-1.8486,-1.8533,-1.8595,-1.8571,-1.8595,-1.8589,-1.8629,-1.8717,-1.8598,-1.8599,-1.8621,-1.882,-1.884,-1.8857,-1.8704,-1.8707,-1.8709,-1.8818,0,-1.8305,-1.8399,-1.8393,-1.8482,-1.8525,-1.85,-1.8548,-1.8572,-1.8579,-1.8618,-1.8625,-1.867,-1.8634,-1.8649,-1.8687,-1.8698,-1.8757,-1.869,-1.8749,-1.8751,-1.8743,-1.8876,-1.8897,-1.8999,-1.8832,-1.8834,-1.8836,0,-1.8436,-1.8469,-1.8563,-1.8587,-1.8605,-1.8648,-1.8686,-1.8723,-1.875,-1.8753,-1.8779,-1.8767,-1.8824,-1.8776,-1.8855,-1.881,-1.8834,-1.8843,-1.8847,-1.8853,-1.8799,-1.8886,-1.9031,-1.9047,-1.8858,-1.8856,-1.8854,0,-1.8526,-1.8593,-1.8658,-1.8674,-1.8703,-1.8734,-1.8748,-1.8772,-1.8798,-1.8832,-1.885,-1.889,-1.8913,-1.8945,-1.8945,-1.891,-1.9026,-1.8978,-1.9031,-1.9031,-1.9056,-1.9055,-1.9208,-1.9071,-1.907,-1.907,-1.907,0,-1.8641,-1.8699,-1.8699,-1.8739,-1.8804,-1.8797,-1.8862,-1.8873,-1.8895,-1.8938,-1.8919,-1.896,-1.8956,-1.8998,-1.8998,-1.9065,-1.9075,-1.9079,-1.9079,-1.9081,-1.9081,-1.9098,-1.9091,-1.9074,-1.9073,-1.9072,-1.9072,0,-1.8752,-1.8753,-1.8823,-1.8845,-1.8852,-1.8899,-1.8919,-1.8958,-1.8963,-1.9017,-1.903,-1.9038,-1.9087,-1.9089,-1.9145,-1.9145,-1.9227,-1.9218,-1.9217,-1.9216,-1.9269,-1.9265,-1.9439,-1.9462,-1.9309,-1.931,-1.9311,0,-1.8825,-1.887,-1.8896,-1.8923,-1.8939,-1.8983,-1.9009,-1.9004,-1.9033,-1.9068,-1.9103,-1.9149,-1.9186,-1.9265,-1.9277,-1.9321,-1.9313,-1.9371,-1.932,-1.9322,-1.9316,-1.9314,-1.9319,-1.9382,-1.9383,-1.9385,-1.9386,0,-1.8956,-1.8955,-1.8993,-1.9033,-1.9065,-1.9096,-1.9125,-1.9148,-1.9147,-1.918,-1.9229,-1.9258,-1.9315,-1.9362,-1.9404,-1.942,-1.9404,-1.9402,-1.9417,-1.9421,-1.9419,-1.9422,-1.9246,-1.9398,-1.9397,-1.9396,-1.9395,-1.9395,-1.9052,-1.909,-1.9116,-1.916,-1.9181,-1.9208,-1.9246,-1.9256,-1.9296,-1.9342,-1.9337,-1.9392,-1.942,-1.9475,-1.9494,-1.9538,-1.9518,-1.9539,-1.9545,-1.955,-1.9557,-1.9411,-1.9545,-1.9545,-1.9545,-1.9544,-1.9544,0,-1.9183,-1.9198,-1.9238,-1.9279,-1.9314,-1.9294,-1.9326,-1.9357,-1.9405,-1.9432,-1.9468,-1.9526,-1.9571,-1.9588,-1.9633,-1.9665,-1.9659,-1.9677,-1.9675,-1.9679,-1.9571,-1.9554,-1.9681,-1.9681,-1.9681,-1.9681,-1.9681,-1.9681,-1.9255,-1.932,-1.9323,-1.9399,-1.9414,-1.9466,-1.9486,-1.9512,-1.9534,-1.9598,-1.9636,-1.9646,-1.9669,-1.9716,-1.9758,-1.9761,-1.9779,-1.9801,-1.9802,-1.97,-1.9687,-1.9674,-1.9658,-1.9805,-1.9805,-1.9907,-1.9908,-1.9909]},{"header":{"parameterUnit":"m.s-1","parameterCategory":1,"la1":30.2991,"la2":30.254,"lo1":-89.0895,"lo2":-89.0444,"dy":0.0017,"dx":0.0017,"nx":28,"ny":28,"refTime":"2026-01-05T09:00:00:Z","depth":0,"parameterNumber":3,"parameterNumberName":"V-component_of_WINDS"},"data":[0,0,0,0,0,0,0,0,0,0,0,0,0,0,0,0,0,0,0,0,0,0,0,0,0,0,0,0,0,0,0,0,0,0,0,0,0,0,0,0,0,0,0,0,0,0,0,0,0,0,0,0,0,0,0,0,0,0,0.2695,0.2696,0,0.2801,0.2802,0.2803,0.2884,0.2885,0.2886,0.2887,0.2996,0.2998,0.3,0,0,0,0,0,0,0,0,0,0,0,0,0,0.2564,0.2566,0.2695,0.2696,0.2697,0.28,0.2802,0.2803,0.2884,0.2885,0.2886,0.2887,0.2995,0.2997,0.3,0,0,0,0,0,0,0,0,0,0,0,0,0,0.264,0.2566,0.2694,0.275,0.2756,0.28,0.2802,0.2804,0.2884,0.2885,0.2886,0.2887,0.2994,0.2997,0.3,0.2998,0,0,0.3011,0.3012,0,0,0,0,0,0,0,0,0.2636,0.2645,0.2741,0.2746,0.2753,0.283,0.2796,0.2869,0.2884,0.2835,0.2887,0.2888,0.294,0.2948,0.2965,0.3003,0.3008,0.3011,0.3013,0.3014,0.3015,0,0,0,0,0,0,0,0.263,0.2641,0.2737,0.2742,0.275,0.277,0.2782,0.281,0.288,0.284,0.2846,0.2857,0.2943,0.2962,0.2968,0.3009,0.3011,0.3014,0.3016,0.3017,0.3052,0.3051,0,0,0,0,0,0,0.2616,0.2636,0.2733,0.274,0.2696,0.2772,0.2785,0.2804,0.288,0.2892,0.2856,0.2861,0.2955,0.2964,0.2972,0.2976,0.3014,0.3017,0.3019,0.3053,0.3052,0.3051,0,0,0,0,0,0,0.2613,0.2624,0.2729,0.269,0.2704,0.2773,0.2794,0.2806,0.2824,0.2892,0.2905,0.2862,0.2957,0.2968,0.2991,0.298,0.3019,0.3022,0.3055,0.3053,0.3052,0.2981,0,0,0,0,0,0,0.2609,0.2622,0.2622,0.2689,0.2706,0.2745,0.2793,0.2807,0.283,0.2837,0.2901,0.2913,0.2958,0.2986,0.2995,0.2986,0.3024,0.3056,0.3054,0.3052,0.2984,0.2977,0.2971,0,0,0,0,0,0.2604,0.2597,0.2621,0.2633,0.2707,0.2745,0.2755,0.2807,0.2828,0.2829,0.2873,0.2911,0.298,0.2988,0.2998,0.299,0.3057,0.3055,0.3052,0.2987,0.2978,0.2971,0,0,0,0,0,0,0.2527,0.2607,0.2635,0.2649,0.269,0.2758,0.276,0.2796,0.2831,0.2836,0.29,0.2914,0.2931,0.2963,0.297,0.2992,0.3023,0.3023,0.2971,0.2963,0.2956,0.2948,0.3027,0,0,0,0,0,0.2512,0.2536,0.2605,0.2611,0.263,0.2691,0.271,0.2747,0.2791,0.2809,0.2854,0.2896,0.2928,0.2947,0.2979,0.2989,0.3005,0.2989,0.2982,0.2976,0.2975,0.2984,0.2978,0.3043,0.3043,0.3044,0,0,0.2481,0.2527,0.2539,0.2597,0.2632,0.2656,0.2705,0.2728,0.2746,0.2812,0.2838,0.2872,0.2923,0.294,0.295,0.2968,0.296,0.2973,0.2968,0.297,0.2981,0.2975,0.2969,0.3042,0.3042,0.3042,0,0,0.2436,0.2474,0.2484,0.2518,0.2572,0.2613,0.2615,0.2679,0.2704,0.2731,0.2781,0.2804,0.2856,0.2891,0.2916,0.2885,0.2922,0.2894,0.2858,0.2866,0.2861,0.2857,0.2847,0.2842,0.2893,0.2893,0.2892,0,0.2391,0.2428,0.2484,0.2505,0.2529,0.259,0.2601,0.2632,0.2693,0.2709,0.2728,0.2795,0.2834,0.2861,0.2853,0.2871,0.2876,0.2887,0.2857,0.2853,0.285,0.2841,0.2837,0.2889,0.2889,0.289,0.289,0,0.2371,0.2396,0.2398,0.2455,0.248,0.2495,0.2554,0.2573,0.2608,0.2647,0.2674,0.2722,0.2766,0.2775,0.2809,0.2807,0.2816,0.2845,0.2878,0.2839,0.2832,0.2829,0.2884,0.2885,0.2886,0.2887,0,0,0.228,0.2369,0.2369,0.2397,0.246,0.2481,0.25,0.2543,0.2558,0.2598,0.2616,0.2659,0.2687,0.2714,0.2753,0.276,0.2734,0.2788,0.279,0.2777,0.2735,0.2714,0.2709,0.2758,0.2758,0.2758,0.2731,0,0.2247,0.2283,0.2334,0.2354,0.2379,0.2437,0.2454,0.2495,0.2532,0.2559,0.2601,0.2631,0.2664,0.2681,0.269,0.2735,0.2726,0.2737,0.2776,0.2777,0.2762,0.2705,0.2682,0.2655,0.2729,0.2728,0.2728,0,0.2212,0.2249,0.2271,0.2334,0.2346,0.236,0.2404,0.2429,0.2477,0.2504,0.2535,0.2577,0.26,0.2629,0.2663,0.267,0.2689,0.2713,0.2713,0.2719,0.275,0.271,0.2647,0.2643,0.2724,0.2724,0.2725,0,0.2145,0.2201,0.2221,0.2243,0.2316,0.2325,0.2356,0.2405,0.2428,0.2467,0.2482,0.2523,0.2545,0.2576,0.2629,0.2645,0.2657,0.269,0.2681,0.2679,0.2681,0.268,0.2621,0.2692,0.2692,0.2692,0.2692,0,0.2102,0.2113,0.2192,0.2205,0.222,0.2279,0.2293,0.2329,0.2372,0.2394,0.2447,0.2466,0.2534,0.2561,0.2602,0.2624,0.2634,0.2657,0.2668,0.2652,0.2649,0.2666,0.2669,0.2691,0.2691,0.2691,0.2691,0,0.203,0.2083,0.211,0.2177,0.2194,0.2202,0.226,0.2276,0.2316,0.2343,0.2352,0.2416,0.2451,0.2506,0.2557,0.2585,0.2601,0.2618,0.2584,0.2591,0.2578,0.2579,0.2528,0.2525,0.2597,0.2596,0.2595,0,0.1999,0.2009,0.2078,0.2096,0.2125,0.2154,0.2177,0.2236,0.2259,0.2315,0.2324,0.2363,0.2397,0.245,0.2502,0.2541,0.2561,0.254,0.2567,0.2552,0.2562,0.256,0.2562,0.2534,0.2533,0.2532,0.2531,0,0.194,0.1966,0.1998,0.2039,0.2066,0.2102,0.214,0.2152,0.2219,0.2242,0.2279,0.2305,0.2358,0.2396,0.2443,0.2476,0.2515,0.2522,0.2522,0.2507,0.2487,0.2499,0.2568,0.2523,0.2524,0.2525,0.2525,0.2525,0.1888,0.19,0.1951,0.1985,0.202,0.2055,0.2072,0.2115,0.2147,0.2194,0.2227,0.2261,0.2311,0.2378,0.2408,0.2437,0.2454,0.2453,0.2454,0.2453,0.2448,0.2482,0.2445,0.2446,0.2446,0.2446,0.2446,0,0.1832,0.1867,0.1898,0.195,0.1977,0.2011,0.2056,0.2076,0.2106,0.2148,0.2181,0.2224,0.2261,0.2316,0.2358,0.237,0.2389,0.2379,0.2379,0.2386,0.2429,0.2426,0.2363,0.2363,0.2363,0.2363,0.2363,0.2363,0.1806,0.1829,0.1861,0.1902,0.1937,0.1971,0.1994,0.2027,0.2061,0.2106,0.2137,0.2173,0.222,0.2266,0.2303,0.2318,0.2331,0.2316,0.2336,0.2376,0.2383,0.2391,0.2387,0.2318,0.2318,0.2291,0.2291,0.2291]}]]